TimeCST,TemperatureF,Dew PointF,Humidity,Sea Level PressureIn,VisibilityMPH,Wind Direction,Wind SpeedMPH,Gust SpeedMPH,PrecipitationIn,Events,Conditions,WindDirDegrees,DateUTC
12:54 AM,59.0,53.1,81,29.98,10.0,SSE,12.7,-,N/A,,Overcast,160,2013-01-01 06:54:00
1:54 AM,60.1,54.0,80,29.97,10.0,South,13.8,24.2,N/A,,Overcast,170,2013-01-01 07:54:00
2:46 AM,60.8,55.4,82,29.98,10.0,SSW,9.2,19.6,N/A,,Overcast,200,2013-01-01 08:46:00
2:54 AM,60.1,55.0,83,30.01,10.0,WNW,10.4,-,N/A,,Overcast,290,2013-01-01 08:54:00
3:34 AM,57.2,55.4,94,30.02,3.0,NNW,5.8,-,0.04,Rain,Rain,330,2013-01-01 09:34:00
3:41 AM,57.2,55.4,94,30.02,3.0,NNW,3.5,-,0.08,Rain,Rain,340,2013-01-01 09:41:00
3:54 AM,57.0,55.0,93,30.02,4.0,NNW,10.4,-,0.10,Rain,Rain,340,2013-01-01 09:54:00
4:15 AM,55.4,53.6,94,30.01,5.0,North,10.4,-,0.05,Rain,Light Rain,10,2013-01-01 10:15:00
4:29 AM,55.4,53.6,94,30.01,4.0,North,11.5,25.3,0.06,Rain,Rain,360,2013-01-01 10:29:00
4:54 AM,54.0,53.1,97,30.00,6.0,ENE,5.8,-,0.15,Rain,Light Rain,60,2013-01-01 10:54:00
5:54 AM,54.0,53.1,97,29.99,8.0,North,3.5,-,0.43,Rain,Light Rain,10,2013-01-01 11:54:00
6:09 AM,53.6,53.6,100,30.00,10.0,Calm,Calm,-,0.00,Rain,Light Rain,0,2013-01-01 12:09:00
6:17 AM,53.6,53.6,100,30.00,10.0,Calm,Calm,-,0.00,,Overcast,0,2013-01-01 12:17:00
6:54 AM,54.0,53.1,97,30.01,5.0,North,4.6,-,0.01,Rain,Light Rain,350,2013-01-01 12:54:00
7:32 AM,53.6,53.6,100,30.02,4.0,Calm,Calm,-,0.09,Rain,Rain,0,2013-01-01 13:32:00
7:54 AM,55.0,53.1,93,30.02,3.0,Calm,Calm,-,0.14,Rain,Rain,0,2013-01-01 13:54:00
7:59 AM,55.4,53.6,94,30.03,1.8,Calm,Calm,-,0.02,Rain,Heavy Rain,0,2013-01-01 13:59:00
8:31 AM,55.4,53.6,94,30.02,3.0,East,6.9,-,0.27,Rain,Rain,100,2013-01-01 14:31:00
8:54 AM,55.0,54.0,96,30.01,3.0,East,4.6,-,0.32,Rain,Rain,90,2013-01-01 14:54:00
9:11 AM,55.4,55.4,100,30.02,4.0,Calm,Calm,-,0.04,Rain,Light Rain,0,2013-01-01 15:11:00
9:21 AM,55.4,53.6,94,30.03,3.0,NNW,4.6,-,0.05,Rain,Rain,340,2013-01-01 15:21:00
9:29 AM,55.4,53.6,94,30.03,4.0,NNW,5.8,-,0.07,Rain,Light Rain,330,2013-01-01 15:29:00
9:54 AM,55.0,54.0,96,30.04,2.0,NNW,5.8,-,0.12,Rain,Rain,340,2013-01-01 15:54:00
10:01 AM,55.4,53.6,94,30.04,2.0,North,4.6,-,0.03,Rain,Rain,10,2013-01-01 16:01:00
10:07 AM,55.4,53.6,94,30.04,4.0,North,3.5,-,0.04,Rain,Light Rain,360,2013-01-01 16:07:00
10:54 AM,55.0,54.0,96,30.01,8.0,North,5.8,-,0.06,Rain,Light Rain,360,2013-01-01 16:54:00
11:54 AM,55.0,53.1,93,30.00,10.0,North,8.1,-,0.04,Rain,Light Rain,360,2013-01-01 17:54:00
12:54 PM,54.0,53.1,97,29.97,6.0,NNW,10.4,-,0.06,Rain,Light Rain,340,2013-01-01 18:54:00
1:08 PM,53.6,53.6,100,29.97,4.0,North,9.2,-,0.03,Rain,Rain,350,2013-01-01 19:08:00
1:54 PM,54.0,52.0,93,29.97,6.0,NNW,13.8,-,0.12,Rain,Light Rain,340,2013-01-01 19:54:00
2:54 PM,50.0,48.0,93,29.99,5.0,NNW,11.5,-,0.03,Rain,Rain,340,2013-01-01 20:54:00
3:54 PM,48.9,46.9,93,30.03,5.0,NNW,9.2,-,0.10,Rain,Rain,330,2013-01-01 21:54:00
4:54 PM,46.9,45.0,93,30.05,5.0,North,8.1,-,0.09,Rain,Light Rain,350,2013-01-01 22:54:00
5:54 PM,46.9,45.0,93,30.05,9.0,North,5.8,-,0.06,Rain,Light Rain,360,2013-01-01 23:54:00
6:07 PM,46.4,44.6,93,30.04,10.0,North,6.9,-,0.01,Rain,Light Rain,360,2013-01-02 00:07:00
6:15 PM,46.4,44.6,93,30.06,8.0,NNW,4.6,-,0.01,Rain,Rain,330,2013-01-02 00:15:00
6:34 PM,46.4,44.6,93,30.05,8.0,Calm,Calm,-,0.03,Rain,Light Rain,0,2013-01-02 00:34:00
6:54 PM,46.9,45.0,93,30.07,8.0,NNW,3.5,-,0.04,Rain,Light Rain,330,2013-01-02 00:54:00
7:20 PM,46.4,44.6,93,30.09,8.0,NNW,10.4,-,0.00,Rain,Light Rain,330,2013-01-02 01:20:00
7:54 PM,45.0,44.1,97,30.10,8.0,NNW,13.8,18.4,0.00,,Overcast,330,2013-01-02 01:54:00
8:54 PM,45.0,43.0,93,30.13,6.0,NNW,10.4,-,N/A,,Overcast,340,2013-01-02 02:54:00
9:09 PM,44.6,42.8,93,30.14,9.0,NNW,13.8,21.9,N/A,,Overcast,340,2013-01-02 03:09:00
9:54 PM,44.1,42.1,93,30.15,7.0,North,10.4,-,N/A,,Overcast,350,2013-01-02 03:54:00
10:39 PM,42.8,41.0,93,30.15,8.0,North,11.5,-,N/A,,Overcast,350,2013-01-02 04:39:00
10:54 PM,42.1,39.9,92,30.14,7.0,North,13.8,-,N/A,,Overcast,350,2013-01-02 04:54:00
11:54 PM,41.0,39.0,93,30.14,6.0,NNW,10.4,19.6,N/A,,Overcast,340,2013-01-02 05:54:00